Regional Weather Roundup
Issued by NWS Charleston, SC

Current Version | Previous Version | Graphics & Text | Print | Product List | Glossary On
Versions: 1 2 3 4 5 6 7 8 9 10 11 12 13 14 15 16 17 18 19 20 21 22 23 24 25 26 27 28 29 30 31 32 33 34 35 36 37 38 39 40 41 42 43 44 45 46 47 48 49 50
000 ASUS42 KCHS 251012 RWRCHS REGIONAL WEATHER ROUNDUP NATIONAL WEATHER SERVICE CHARLESTON SC 600 AM EDT THU MAY 25 2017 NOTE: "FAIR" INDICATES FEW OR NO CLOUDS BELOW 12,000 FEET WITH NO SIGNIFICANT WEATHER AND/OR OBSTRUCTIONS TO VISIBILITY. NOT ALL STATIONS ARE QUALITY CONTROLLED. USE DATA WITH CAUTION... ESPECIALLY DEWPOINT OBSERVATIONS. SCZ027-030-031-034>040-042>050-251100- ...SOUTHEAST SOUTH CAROLINA... CITY SKY/WX TMP DP RH WIND PRES REMARKS N CHARLESTON PTCLDY 66 62 87 W12 29.62R WATERFRONT PRK N/A 69 65 86 W8 29.60R JOHNS ISLAND FAIR 68 63 83 SW10 29.63R PINOPOLIS N/A 68 66 94 SW13 29.51R MONCKS CORNER PTSUNNY 64 61 88 SW10G16 29.61R SUMMERVILLE CLOUDY 64 61 88 SW10G16 29.63R BEAUFORT MCAS CLEAR 65 61 87 W14 29.65R BEAUFORT ARPT FAIR 64 59 82 W13 29.65R HILTON HEAD IS NOT AVBL WALTERBORO SUNNY 63 61 94 W10G16 29.64R ALLENDALE FAIR 63 61 94 CALM 29.63R ...SOUTHERN MIDLANDS AND PEE DEE... CITY SKY/WX TMP DP RH WIND PRES REMARKS GEORGETOWN FAIR 64 64 100 SW7 29.61R KINGSTREE PTSUNNY N/A N/A N/A SW5 29.59R ORANGEBURG PTCLDY 64 62 93 W12 29.62R BARNWELL FAIR 63 61 94 SW6 29.63R AIKEN FAIR 55 55 100 SW7 29.65R MANNING FAIR 64 64 100 SW24 29.59R COLUMBIA CLEAR 61 58 90 SW8 29.59R SUMTER PTCLDY 63 61 93 SW12 29.56R FLORENCE PTCLDY 64 63 96 SW7 29.57R MYRTLE BEACH CLEAR 68 66 93 SW6 29.59R N MYRTLE BEACH CLEAR 69 66 90 SW10 29.57R $$ GAZ063-065-086>088-099>101-113>116-118-119-134>141-150-251100- ...SOUTHEAST GEORGIA... CITY SKY/WX TMP DP RH WIND PRES REMARKS SAVANNAH ARPT PTCLDY 63 59 87 SW7 29.67R HUNTER AAF CLEAR 64 64 100 SW6 29.65R FORT STEWART CLEAR 62 58 88 S5 29.66R STATESBORO CLEAR 61 61 100 CALM 29.66S SYLVANIA SUNNY 61 61 99 W3 29.66S CLAXTON FAIR 61 61 100 CALM 29.66F ...CSRA...CENTRAL AND FAR SOUTHEAST GEORGIA... CITY SKY/WX TMP DP RH WIND PRES REMARKS THOMSON PTCLDY 58 55 91 NW8 29.68R AUGUSTA-BUSH CLEAR 61 58 90 SW10 29.62R AUGUSTA-DANIEL CLEAR 60 55 83 SW6 29.62R SWAINSBORO FAIR 59 59 100 W3 29.67S VIDALIA NOT AVBL EASTMAN CLOUDY 60 56 84 W3 29.71R HAZLEHURST FAIR 61 61 100 SW5 29.68R ALMA MOCLDY 62 59 90 SW5 29.70R WAYCROSS CLOUDY 65 65 100 SW6 29.71R JESUP PTSUNNY 63 59 88 SW3 29.70R BAXLEY MOCLDY 63 63 100 CALM 29.69R BRUNSWICK PTCLDY 64 63 94 SW6 29.72R SAINT SIMONS CLEAR 67 62 84 SW8 29.70R $$ SCZ027-028-034-036>038-045-046-048>050-GAZ119-141-251100- ...LAKE AND SUPPLEMENTAL COASTAL OBSERVATIONS... STATION/POSITION TIME TEMP WIND PRES WAVE SWELL AIR SEA DIR/SP/G HT/PER HT/PER/DIR (UTC) (F) (DEG/KT/KT) (MB) (FT/S) (FT/S/D) WINYAH BAY NOT AVBL LAKE MURRAY 0920 63 250/ 12/ 15 1000.7 ACE BASIN NERRS 0845 68 230/ 4 1003.0 FORT PULASKI 0948 67 260/ 8/ 12 1004.9R SAPELO ISLAND 0900 68 250/ 11 1005.0 $$ ANZ835-935-AMZ111-154-330-350-352-354-370-450-454-472-251100- ...C-MAN AND BUOY OBSERVATIONS... STATION/POSITION TIME TEMP WIND PRES WAVE SWELL AIR SEA DIR/SP/G HT/PER HT/PER/DIR (UTC) (F) (DEG/KT/KT) (MB) (FT/S) (FT/S/D) BUOY 41004 0950 74 76 240/ 25/ 33 1002.6R 10/ 8 BUOY 41008 0850 72 77 250/ 23/ 27 1003.8 6/ 5 FOLLY BEACH CMAN 0900 70 240/ 13/ 18 1003.0R CAPERS NEARSHORE 0908 78 77 250/ 19/ 25 1001.6R FRIPP NEARSHORE 0908 71 77 260/ 19/ 25 1002.4R STATION/POSITION TIME TEMP WIND PRES WAVE SWELL AIR SEA DIR/SP/G HT/PER HT/PER/DIR (UTC) (F) (DEG/KT/KT) (MB) (FT/S) (FT/S/D) 5E ST. MARYS GA 0900 78 N/A 3/ 6 FRYING PAN BUOY 0950 77 76 220/ 23/ 31 1001.5R 9/ 7 BUOY 41025 0950 77 78 220/ 25/ 31 1000.9F 5/ 6 2/190/ 8 CAPE LOOKOUT NC 0900 75 220/ 16/ 19 1000.6R BUOY 41002 0850 76 77 180/ 27/ 31 1006.6 11/ 8 BUOY 41010 0950 80 78 220/ 17/ 23 1008.6S 8/ 8 ST AUGUSTINE FL 1000 69 76 250/ 3/ 5 1008.1R $$

USA.gov is the U.S. government's official web portal to all federal, state and local government web resources and services.